FENGYUN 1C DEB, 35135

Orbit data source: Space-Track

FENGYUN 1C DEB, 35135 is space debris in SSO originally from a launch on Mon, 10 May 1999 UTC launched from the Taiyaun Space Center, China (TSC). Fengyun 1C debris stems from the Chinese weather satellite Fengyun-1C, which was intentionally destroyed by a Chinese anti-satellite missile in 2007. This event dramatically increased the amount of space debris, with thousands of trackable fragments posing hazards to satellites and human spaceflight. The Fengyun 1C debris cloud has become a focal point in discussions about space sustainability and the need for international regulations to prevent the creation of new debris.

Loading next visibility...
Identifier
35135, 1999-025DLP
Orbit
SSO
Country
Flag of CNCN / PRC
Related business
Manufacturer
Unknown
Mission
Spacecraft
Bus & Motor
Unknown
Mass
Unknown
Launch date (UTC)
1999-05-10 (27 years ago)
Launch vehicle
Unknown
Launch site
Taiyaun Space Center, China (TSC)
Object type
Payload
Rocket body
Debris
Shape & HBR
Unknown shape, 0.1 m
Radar Cross Section
Small (<0.1 m²)

Expand to show TLE details & history
Last TLE update: 2 days ago

TLE from 2 days ago
0 FENGYUN 1C DEB
1 35135U 99025DLP 26253.26393312  .00000523  00000-0  24282-3 0  9990
2 35135  98.5636 259.5944 0080542 214.1460 145.4523 14.23044293916856
Epoch: 2026-09-10T06:20Z
TLE epoch observation values (Epoch: 2026-09-10T06:20:03.821Z)
Latitude
-0.00006°
Longitude
175.27435°
Altitude
865.876 km
Speed
7.395 km/s
True Right ascension
17h 18m 22s
True Declination
0° 00' 00"
Sunlit
Object was in daylight at epoch
Visualization orbit readout
Latitude
Unknown
Longitude
Unknown
Altitude
Unknown
Speed
Unknown
Apparent Right ascension
Unknown
Apparent Declination
Unknown
Sunlit
N/A
Visualization observer readout
Local Sidereal Time
07:39:36
Azimuth
Unknown
Elevation
Unknown
Doppler factor
Unknown
Orbital elements
Apogee altitude
870.135 km
Perigee altitude
754.31 km
Semi-major axis
7,190.36 km
Eccentricity
0.00805
Inclination
98.5636°
RAAN
259.5944°
Arg. of periapsis
214.146°
True anomaly
145.97138°
Mean anomaly
145.4523°
Eccentric anomaly
145.71227°
Mean motion
3.55973 °/min
Orbital period
101.13 mins
BSTAR
0.00024282
Loading maneuver chart data...
Computing Atmospheric mass density...
Loading historical data...
Loading historical data...
Loading historical data...
Loading historical data...
Loading historical data...
Loading historical data...
Loading historical data...

Documentation

Showing up to 5 results
|